User: anonymous   Login
Location: San Francisco
(37.7750°N, 122.4180°W)
Time: 22:31:17
(UTC-08:00)
Language:

GP-B - Orbit

View from above orbital plane
View from above orbital plane
View from above satellite
View from above satellite

Ground track
Ground track

The orbit data is extracted from the following two-line orbital elements,

1 28230U 04014A   15026.85827912  .00000582  00000-0  78591-4 0  2767
2 28230 089.8840 136.8314 0002995 095.1703 264.9861 14.77933569580227
Epoch (UTC): 26 January 2015 20:35:55
Eccentricity: 0.0002995
inclination: 89.8840°
perigee height: 634 km
apogee height: 638 km
right ascension of ascending node: 136.8314°
argument of perigee: 95.1703°
revolutions per day: 14.77933569
mean anomaly at epoch: 264.9861°
orbit number at epoch: 58022

The dashed part of the orbit path shows where the satellite is in the earth's shadow,  

DLR